Simultaneous Nadir Overpasses (SNOs) Predictions

Prediction of SNOs between METOP-C and LANDSAT-8 Satellite Orbit:

Table of predicted SNOs for the next 14.0 days since TLE Epoch: 3/6/2021
Index Date (METOP-C) Time (METOP-C) Lat,Lon (METOP-C) SZA (METOP-C ) Date (LANDSAT-8) Time (LANDSAT-8) Lat,Lon (LANDSAT-8) SZA (LANDSAT-8 ) Distance(km) Time Diff (sec)
1 03/06/2021 22:33:14 81.09,-119.28 88.06 03/06/2021 22:33:42 81.08,-119.42 88.05 2.32 28
2 03/06/2021 23:23:54 -81.11, 48.62 91.89 03/06/2021 23:23:08 -81.10, 48.48 91.93 2.36 46
3 03/09/2021 18:07:37 81.08, -53.13 86.95 03/09/2021 18:07:56 81.07, -53.12 86.95 0.18 19
4 03/09/2021 18:58:17 -81.10, 114.76 93.00 03/09/2021 18:57:22 -81.09, 114.81 93.02 0.92 55
5 03/12/2021 13:41:59 81.08, 13.40 85.88 03/12/2021 13:42:09 81.09, 13.50 85.89 2.01 10
6 03/12/2021 14:32:38 -81.11,-178.37 94.03 03/12/2021 14:31:35 -81.11,-178.54 94.08 2.99 63
7 03/15/2021 08:26:11 -80.48, -98.38 96.62 03/15/2021 08:27:25 -80.23, -97.49 96.75 32.17 74
8 03/15/2021 09:16:19 81.10, 80.28 84.85 03/15/2021 09:16:21 81.10, 80.10 84.83 3.14 2
9 03/15/2021 10:06:59 -81.12,-111.88 95.11 03/15/2021 10:05:47 -81.12,-111.92 95.14 0.75 72
10 03/18/2021 04:00:04 -81.05, -21.78 96.37 03/18/2021 04:01:10 -81.06, -21.70 96.34 1.33 66



Historial Predications of SNOs between METOP-C and LANDSAT-8
